| time (UTC) | temp F | wind direction | speed knots | gust knots | rain 1hr in | rain 24hr in | rain mn in | humidity % | barometer mb |
| 20260507134603 | 55 | 248 | 1.7 | 7.0 | 0.00 | 1.02 | 0.21 | 72 | 1005.0 |
| 20260507133132 | 55 | 0 | 1.7 | 8.7 | 0.00 | 1.02 | 0.21 | 71 | 1005.2 |
| 20260507131557 | 54 | 310 | 1.7 | 7.8 | 0.00 | 1.02 | 0.21 | 76 | 1005.4 |
| 20260507130110 | 53 | 346 | 4.3 | 10.4 | 0.00 | 1.02 | 0.21 | 78 | 1005.1 |
| 20260507124559 | 51 | 282 | 2.6 | 11.3 | 0.00 | 1.02 | 0.21 | 82 | 1005.2 |
| 20260507123055 | 50 | 281 | 3.5 | 9.6 | 0.00 | 1.02 | 0.21 | 86 | 1004.7 |
| 20260507121611 | 49 | 275 | 1.7 | 7.8 | 0.00 | 1.02 | 0.21 | 87 | 1005.1 |
| 20260507120105 | 49 | 303 | 3.5 | 7.8 | 0.00 | 1.02 | 0.21 | 88 | 1005.1 |
| 20260507114635 | 48 | 281 | 3.5 | 7.8 | 0.00 | 1.02 | 0.21 | 91 | 1005.6 |
| 20260507113057 | 47 | 259 | 1.7 | 5.2 | 0.00 | 1.02 | 0.21 | 92 | 1005.8 |
| 20260507111603 | 46 | 295 | 1.7 | 7.8 | 0.00 | 1.02 | 0.21 | 91 | 1005.8 |
| 20260507110057 | 46 | 267 | 3.5 | 7.0 | 0.00 | 1.02 | 0.21 | 91 | 1005.6 |
| 20260507104556 | 46 | 263 | 2.6 | 8.7 | 0.00 | 1.02 | 0.21 | 92 | 1005.5 |
| 20260507103056 | 46 | 320 | 2.6 | 7.0 | 0.00 | 1.02 | 0.21 | 93 | 1004.8 |
| 20260507101604 | 46 | 273 | 2.6 | 7.8 | 0.00 | 1.02 | 0.21 | 92 | 1004.9 |
| 20260507094559 | 46 | 308 | 3.5 | 8.7 | 0.00 | 1.02 | 0.21 | 93 | 1004.7 |
| 20260507093055 | 46 | 323 | 2.6 | 7.0 | 0.00 | 1.02 | 0.21 | 94 | 1004.3 |
| 20260507091556 | 46 | 298 | 2.6 | 7.0 | 0.00 | 1.02 | 0.21 | 94 | 1005.2 |
| 20260507090100 | 47 | 259 | 1.7 | 7.8 | 0.00 | 1.02 | 0.21 | 95 | 1004.9 |
| 20260507084601 | 47 | 261 | 2.6 | 10.4 | 0.00 | 1.02 | 0.21 | 95 | 1004.6 |
| 20260507083057 | 47 | 273 | 2.6 | 7.0 | 0.00 | 1.02 | 0.21 | 95 | 1004.2 |
| 20260507081555 | 47 | 261 | 2.6 | 7.8 | 0.00 | 1.02 | 0.21 | 95 | 1004.0 |
| 20260507080117 | 48 | 339 | 2.6 | 7.8 | 0.01 | 1.02 | 0.21 | 95 | 1004.0 |
| 20260507074601 | 48 | 267 | 2.6 | 6.1 | 0.01 | 1.02 | 0.21 | 95 | 1004.0 |
| 20260507073106 | 48 | 333 | 5.2 | 8.7 | 0.01 | 1.02 | 0.21 | 95 | 1003.6 |
| 20260507071557 | 48 | 323 | 4.3 | 11.3 | 0.01 | 1.02 | 0.21 | 95 | 1003.7 |
| 20260507070056 | 48 | 275 | 2.6 | 9.6 | 0.02 | 1.01 | 0.20 | 96 | 1003.2 |
| 20260507064600 | 48 | 279 | 4.3 | 9.6 | 0.11 | 1.01 | 0.20 | 96 | 1003.5 |
| 20260507063106 | 49 | 284 | 3.5 | 9.6 | 0.19 | 1.01 | 0.20 | 96 | 1003.5 |
| 20260507061558 | 49 | 267 | 2.6 | 12.2 | 0.19 | 1.01 | 0.20 | 96 | 1003.3 |
| 20260507060056 | 49 | 323 | 2.6 | 12.2 | 0.17 | 0.99 | 0.18 | 96 | 1002.8 |
| 20260507054556 | 50 | 252 | 5.2 | 10.4 | 0.09 | 0.90 | 0.09 | 96 | 1004.1 |
| 20260507053055 | 50 | 201 | 3.5 | 7.8 | 0.01 | 0.82 | 0.01 | 96 | 1003.1 |
| 20260507051555 | 50 | 269 | 2.6 | 7.8 | 0.01 | 0.82 | 0.01 | 96 | 1003.0 |
| 20260507050057 | 50 | 262 | 2.6 | 8.7 | 0.01 | 0.82 | 0.01 | 96 | 1003.3 |
| 20260507044553 | 51 | 171 | 1.7 | 8.7 | 0.00 | 0.81 | 0.00 | 96 | 1003.4 |
| 20260507043053 | 51 | 267 | 3.5 | 9.6 | 0.00 | 0.81 | 0.00 | 96 | 1003.0 |
| 20260507041556 | 50 | 284 | 0.9 | 9.6 | 0.00 | 0.81 | 0.00 | 96 | 1003.3 |
| 20260507034558 | 50 | 168 | 3.5 | 14.8 | 0.01 | 0.81 | 0.81 | 95 | 1003.7 |
| 20260507033100 | 51 | 146 | 5.2 | 13.9 | 0.02 | 0.81 | 0.81 | 95 | 1003.7 |
| 20260507031556 | 51 | 189 | 6.1 | 20.9 | 0.04 | 0.81 | 0.81 | 95 | 1003.8 |
| 20260507030054 | 52 | 192 | 6.1 | 18.2 | 0.06 | 0.81 | 0.81 | 95 | 1004.0 |
| 20260507024607 | 53 | 194 | 4.3 | 12.2 | 0.08 | 0.80 | 0.80 | 95 | 1004.4 |
| 20260507023056 | 53 | 159 | 2.6 | 12.2 | 0.14 | 0.79 | 0.79 | 95 | 1004.7 |
| 20260507021556 | 53 | 194 | 5.2 | 21.7 | 0.24 | 0.77 | 0.77 | 95 | 1004.7 |
| 20260507020114 | 53 | 141 | 5.2 | 15.6 | 0.29 | 0.75 | 0.75 | 95 | 1004.8 |
| 20260507014601 | 53 | 181 | 6.1 | 18.2 | 0.31 | 0.72 | 0.72 | 95 | 1005.0 |
| 20260507013059 | 53 | 144 | 4.3 | 13.0 | 0.31 | 0.65 | 0.65 | 95 | 1005.4 |
| 20260507011558 | 53 | 120 | 4.3 | 12.2 | 0.24 | 0.52 | 0.52 | 94 | 1005.8 |
| 20260507004605 | 53 | 105 | 1.7 | 10.4 | 0.22 | 0.41 | 0.41 | 94 | 1006.2 |
| 20260507003057 | 53 | 126 | 5.2 | 10.4 | 0.18 | 0.34 | 0.34 | 94 | 1006.4 |
| 20260507001559 | 53 | 78 | 5.2 | 16.5 | 0.16 | 0.29 | 0.29 | 94 | 1006.5 |
| 20260507000058 | 53 | 115 | 5.2 | 16.5 | 0.12 | 0.23 | 0.23 | 94 | 1006.7 |
| 20260506234555 | 53 | 132 | 3.5 | 13.0 | 0.08 | 0.19 | 0.19 | 93 | 1006.9 |
| 20260506233112 | 53 | 140 | 6.1 | 13.9 | 0.06 | 0.16 | 0.16 | 93 | 1006.8 |
| 20260506231602 | 53 | 179 | 2.6 | 8.7 | 0.04 | 0.13 | 0.13 | 94 | 1007.1 |
| 20260506230059 | 53 | 111 | 2.6 | 8.7 | 0.04 | 0.11 | 0.11 | 93 | 1007.0 |
| 20260506224556 | 53 | 103 | 5.2 | 14.8 | 0.09 | 0.11 | 0.11 | 93 | 1007.2 |
| 20260506223055 | 53 | 0 | 2.6 | 13.0 | 0.09 | 0.10 | 0.10 | 93 | 1007.4 |
| 20260506221609 | 53 | 29 | 3.5 | 11.3 | 0.08 | 0.09 | 0.09 | 93 | 1007.4 |
| 20260506220057 | 53 | 158 | 2.6 | 14.8 | 0.06 | 0.06 | 0.06 | 92 | 1007.9 |
| 20260506214557 | 53 | 282 | 6.1 | 12.2 | 0.02 | 0.02 | 0.02 | 92 | 1008.2 |
| 20260506213112 | 53 | 166 | 2.6 | 8.7 | 0.01 | 0.01 | 0.01 | 91 | 1008.0 |
| 20260506211555 | 53 | 140 | 1.7 | 5.2 | 0.01 | 0.01 | 0.01 | 90 | 1007.8 |
| 20260506210058 | 53 | 119 | 3.5 | 17.4 | 0.00 | 0.00 | 0.00 | 89 | 1008.7 |
| 20260506204556 | 54 | 132 | 3.5 | 14.8 | 0.00 | 0.00 | 0.00 | 88 | 1008.6 |
| 20260506203058 | 54 | 96 | 4.3 | 16.5 | 0.00 | 0.00 | 0.00 | 86 | 1008.5 |
| 20260506201556 | 55 | 207 | 3.5 | 14.8 | 0.00 | 0.00 | 0.00 | 86 | 1008.5 |
| 20260506200055 | 55 | 154 | 7.8 | 18.2 | 0.00 | 0.00 | 0.00 | 86 | 1008.2 |
| 20260506194601 | 55 | 190 | 6.1 | 13.9 | 0.00 | 0.00 | 0.00 | 85 | 1008.1 |
| 20260506193057 | 55 | 132 | 7.0 | 17.4 | 0.00 | 0.00 | 0.00 | 84 | 1008.2 |
| 20260506191555 | 56 | 156 | 4.3 | 16.5 | 0.00 | 0.00 | 0.00 | 84 | 1008.5 |
| 20260506190101 | 56 | 228 | 7.0 | 17.4 | 0.00 | 0.00 | 0.00 | 84 | 1008.6 |
| 20260506184609 | 55 | 157 | 5.2 | 11.3 | 0.00 | 0.00 | 0.00 | 84 | 1008.7 |
| 20260506183105 | 55 | 161 | 3.5 | 20.9 | 0.00 | 0.00 | 0.00 | 84 | 1008.8 |
| 20260506181621 | 56 | 104 | 3.5 | 13.9 | 0.00 | 0.00 | 0.00 | 83 | 1008.6 |
| 20260506180058 | 56 | 191 | 3.5 | 15.6 | 0.00 | 0.00 | 0.00 | 84 | 1008.9 |
| 20260506174554 | 57 | 193 | 5.2 | 15.6 | 0.00 | 0.00 | 0.00 | 83 | 1009.1 |
| 20260506173108 | 57 | 215 | 6.1 | 13.0 | 0.00 | 0.00 | 0.00 | 82 | 1009.2 |
| 20260506171555 | 57 | 188 | 6.1 | 21.7 | 0.00 | 0.00 | 0.00 | 82 | 1009.5 |
| 20260506170059 | 58 | 167 | 6.1 | 13.9 | 0.00 | 0.00 | 0.00 | 81 | 1009.6 |
| 20260506164604 | 57 | 193 | 7.8 | 23.5 | 0.00 | 0.00 | 0.00 | 82 | 1009.6 |
| 20260506163100 | 58 | 175 | 6.1 | 19.1 | 0.00 | 0.00 | 0.00 | 82 | 1010.0 |
| 20260506161604 | 59 | 174 | 6.1 | 21.7 | 0.00 | 0.00 | 0.00 | 81 | 1010.1 |
| 20260506160108 | 59 | 261 | 4.3 | 16.5 | 0.00 | 0.00 | 0.00 | 81 | 1010.0 |
| 20260506154603 | 58 | 138 | 6.1 | 15.6 | 0.00 | 0.00 | 0.00 | 83 | 1010.0 |
| 20260506153113 | 58 | 204 | 2.6 | 11.3 | 0.00 | 0.00 | 0.00 | 84 | 1009.7 |
| 20260506151607 | 56 | 321 | 3.5 | 11.3 | 0.00 | 0.00 | 0.00 | 87 | 1010.0 |
| 20260506144557 | 54 | 223 | 5.2 | 13.9 | 0.00 | 0.00 | 0.00 | 88 | 1010.7 |
| 20260506143100 | 54 | 161 | 7.0 | 12.2 | 0.00 | 0.00 | 0.00 | 88 | 1010.8 |
| 20260506141559 | 54 | 239 | 2.6 | 9.6 | 0.00 | 0.00 | 0.00 | 88 | 1010.6 |
| 20260506140111 | 55 | 205 | 1.7 | 7.8 | 0.00 | 0.00 | 0.00 | 88 | 1010.7 |